EZY532 EGAC-EGGP

Flight info

Callsign EZY532
Flight time 0h 31m
Altitude 21000
Route DUFFY L15 PEPOD Q38 SOSIM L28 PENIL
Aircraft A319/M-SDE2E3FGIJ1RWXYZ/LB1

Departure

Time 2026-04-20 21:52
Airport George Best Belfast City Airport (EGAC)

Arrival

Time 2026-04-20 22:24
Airport Liverpool John Lennon Airport (EGGP)
Time Latitude Longitude Altitude Speed Heading
2026-04-20 21:24 54.61432 -5.87218 21 ft 0 kts 124°
2026-04-20 21:45 54.61434 -5.87222 21 ft 3 kts 124°
2026-04-20 21:46 54.61450 -5.87257 21 ft 4 kts 139°
2026-04-20 21:46 54.61472 -5.87280 21 ft 4 kts 175°
2026-04-20 21:46 54.61488 -5.87275 21 ft 1 kts 214°
2026-04-20 21:46 54.61491 -5.87272 24 ft 0 kts 214°
2026-04-20 21:49 54.61481 -5.87283 24 ft 9 kts 214°
2026-04-20 21:49 54.61408 -5.87390 21 ft 15 kts 229°
2026-04-20 21:49 54.61333 -5.87517 20 ft 12 kts 219°
2026-04-20 21:50 54.61252 -5.87608 17 ft 15 kts 214°
2026-04-20 21:50 54.61182 -5.87688 16 ft 9 kts 212°
2026-04-20 21:50 54.61162 -5.87711 16 ft 3 kts 212°
2026-04-20 21:50 54.61143 -5.87732 17 ft 3 kts 212°
2026-04-20 21:51 54.61130 -5.87746 18 ft 1 kts 213°
2026-04-20 21:51 54.61120 -5.87757 18 ft 5 kts 213°
2026-04-20 21:51 54.61088 -5.87823 19 ft 8 kts 251°
2026-04-20 21:51 54.61104 -5.87950 19 ft 17 kts 302°
2026-04-20 21:52 54.61195 -5.87988 19 ft 16 kts 31°
2026-04-20 21:52 54.61405 -5.87736 13 ft 75 kts 35°
2026-04-20 21:52 54.62036 -5.86977 21 ft 143 kts 34°
2026-04-20 21:52 54.62852 -5.85991 661 ft 140 kts 36°
2026-04-20 21:53 54.63652 -5.85042 1367 ft 141 kts 38°
2026-04-20 21:53 54.64455 -5.83890 1797 ft 160 kts 58°
2026-04-20 21:53 54.64779 -5.81962 2155 ft 181 kts 94°
2026-04-20 21:53 54.64307 -5.79854 2549 ft 208 kts 130°
2026-04-20 21:54 54.62957 -5.78609 3047 ft 240 kts 167°
2026-04-20 21:54 54.61259 -5.78145 3890 ft 250 kts 163°
2026-04-20 21:54 54.59600 -5.77199 4941 ft 253 kts 156°
2026-04-20 21:54 54.57959 -5.76039 5975 ft 256 kts 155°
2026-04-20 21:55 54.56301 -5.74845 6978 ft 261 kts 156°
2026-04-20 21:55 54.54603 -5.73666 7937 ft 265 kts 158°
2026-04-20 21:55 54.52870 -5.72509 8905 ft 269 kts 158°
2026-04-20 21:55 54.51100 -5.71372 9877 ft 273 kts 159°
2026-04-20 21:56 54.49266 -5.70230 10515 ft 290 kts 160°
2026-04-20 21:56 54.47296 -5.69024 10982 ft 309 kts 160°
2026-04-20 21:56 54.45244 -5.67788 11762 ft 316 kts 160°
2026-04-20 21:56 54.43182 -5.66554 12598 ft 320 kts 160°
2026-04-20 21:57 54.41060 -5.65285 13463 ft 325 kts 160°
2026-04-20 21:57 54.38901 -5.63990 14283 ft 330 kts 160°
2026-04-20 21:57 54.36721 -5.62677 15014 ft 334 kts 160°
2026-04-20 21:57 54.34516 -5.61347 15724 ft 339 kts 161°
2026-04-20 21:58 54.32269 -5.60000 16437 ft 343 kts 161°
2026-04-20 21:58 54.30001 -5.58605 17162 ft 348 kts 158°
2026-04-20 21:58 54.27853 -5.56619 17865 ft 354 kts 147°
2026-04-20 21:58 54.25960 -5.53875 18564 ft 360 kts 134°
2026-04-20 21:59 54.24413 -5.50536 19170 ft 365 kts 126°
2026-04-20 21:59 54.22924 -5.46981 19781 ft 370 kts 127°
2026-04-20 21:59 54.21412 -5.43396 20359 ft 375 kts 127°
2026-04-20 21:59 54.19871 -5.39761 20945 ft 380 kts 127°
2026-04-20 22:00 54.18309 -5.36080 21271 ft 384 kts 127°
2026-04-20 22:00 54.16754 -5.32412 21341 ft 374 kts 127°
2026-04-20 22:00 54.15265 -5.28889 21339 ft 360 kts 127°
2026-04-20 22:00 54.13804 -5.25444 21347 ft 355 kts 127°
2026-04-20 22:01 54.12354 -5.22037 21339 ft 355 kts 127°
2026-04-20 22:01 54.10896 -5.18618 21342 ft 357 kts 127°
2026-04-20 22:01 54.09437 -5.15200 21342 ft 356 kts 127°
2026-04-20 22:01 54.07979 -5.11789 21342 ft 356 kts 127°
2026-04-20 22:02 54.06516 -5.08380 21342 ft 357 kts 127°
2026-04-20 22:02 54.05069 -5.05022 21345 ft 357 kts 127°
2026-04-20 22:02 54.03597 -5.01609 21339 ft 358 kts 127°
2026-04-20 22:02 54.02127 -4.98196 21341 ft 358 kts 127°
2026-04-20 22:03 54.00657 -4.94785 21345 ft 358 kts 127°
2026-04-20 22:03 53.99177 -4.91355 21345 ft 358 kts 127°
2026-04-20 22:03 53.97703 -4.87943 21348 ft 357 kts 127°
2026-04-20 22:03 53.96230 -4.84534 21351 ft 357 kts 127°
2026-04-20 22:04 53.94762 -4.81144 21348 ft 357 kts 127°
2026-04-20 22:04 53.93284 -4.77739 21349 ft 357 kts 127°
2026-04-20 22:04 53.91829 -4.74391 21346 ft 357 kts 128°
2026-04-20 22:04 53.90351 -4.70993 21341 ft 357 kts 127°
2026-04-20 22:05 53.88878 -4.67607 21346 ft 357 kts 127°
2026-04-20 22:05 53.87398 -4.64212 21333 ft 358 kts 127°
2026-04-20 22:05 53.85925 -4.60840 21070 ft 351 kts 127°
2026-04-20 22:05 53.84476 -4.57535 20739 ft 346 kts 127°
2026-04-20 22:06 53.83036 -4.54257 20346 ft 344 kts 127°
2026-04-20 22:06 53.81707 -4.50974 19955 ft 341 kts 119°
2026-04-20 22:06 53.80716 -4.47290 19563 ft 339 kts 110°
2026-04-20 22:06 53.79877 -4.43627 19184 ft 337 kts 111°
2026-04-20 22:07 53.79024 -4.39947 18790 ft 335 kts 111°
2026-04-20 22:07 53.78171 -4.36289 18388 ft 333 kts 111°
2026-04-20 22:07 53.77322 -4.32656 18009 ft 330 kts 111°
2026-04-20 22:07 53.76479 -4.29068 17622 ft 327 kts 111°
2026-04-20 22:08 53.75641 -4.25514 17265 ft 324 kts 111°
2026-04-20 22:08 53.74815 -4.21992 16905 ft 321 kts 111°
2026-04-20 22:08 53.73993 -4.18493 16548 ft 319 kts 111°
2026-04-20 22:08 53.73178 -4.15028 16203 ft 316 kts 111°
2026-04-20 22:09 53.72368 -4.11586 15856 ft 314 kts 111°
2026-04-20 22:09 53.71570 -4.08208 15512 ft 311 kts 111°
2026-04-20 22:09 53.70769 -4.04819 15167 ft 309 kts 111°
2026-04-20 22:09 53.69971 -4.01453 14827 ft 308 kts 111°
2026-04-20 22:10 53.69177 -3.98104 14482 ft 306 kts 111°
2026-04-20 22:10 53.68390 -3.94782 14139 ft 305 kts 111°
2026-04-20 22:10 53.67605 -3.91470 13773 ft 303 kts 111°
2026-04-20 22:10 53.66827 -3.88187 13417 ft 300 kts 111°
2026-04-20 22:11 53.66053 -3.84931 13074 ft 298 kts 111°
2026-04-20 22:11 53.65282 -3.81703 12734 ft 295 kts 111°
2026-04-20 22:11 53.64513 -3.78502 12379 ft 293 kts 111°
2026-04-20 22:11 53.63757 -3.75360 12033 ft 291 kts 111°
2026-04-20 22:12 53.62998 -3.72202 11690 ft 289 kts 111°
2026-04-20 22:12 53.62243 -3.69067 11330 ft 288 kts 111°
2026-04-20 22:12 53.61276 -3.66122 10975 ft 287 kts 126°
2026-04-20 22:12 53.59935 -3.63653 10620 ft 285 kts 135°
2026-04-20 22:13 53.58513 -3.61274 10013 ft 291 kts 131°
2026-04-20 22:13 53.57162 -3.58835 9659 ft 279 kts 130°
2026-04-20 22:13 53.55887 -3.56457 9126 ft 273 kts 130°
2026-04-20 22:13 53.54646 -3.54124 8713 ft 263 kts 130°
2026-04-20 22:14 53.53441 -3.51874 8344 ft 252 kts 130°
2026-04-20 22:14 53.52272 -3.49711 8004 ft 248 kts 130°
2026-04-20 22:14 53.51108 -3.47569 7644 ft 247 kts 130°
2026-04-20 22:14 53.49950 -3.45446 7289 ft 246 kts 130°
2026-04-20 22:15 53.48798 -3.43337 6920 ft 244 kts 131°
2026-04-20 22:15 53.47624 -3.41187 6644 ft 246 kts 130°
2026-04-20 22:15 53.46516 -3.39166 6380 ft 231 kts 131°
2026-04-20 22:15 53.45441 -3.37211 6113 ft 218 kts 130°
2026-04-20 22:16 53.44452 -3.35410 5856 ft 207 kts 130°
2026-04-20 22:16 53.43501 -3.33677 5597 ft 197 kts 131°
2026-04-20 22:16 53.42578 -3.31997 5340 ft 194 kts 131°
2026-04-20 22:16 53.41674 -3.30353 5078 ft 191 kts 131°
2026-04-20 22:17 53.40773 -3.28720 4802 ft 191 kts 132°
2026-04-20 22:17 53.39870 -3.27083 4546 ft 191 kts 132°
2026-04-20 22:17 53.38968 -3.25449 4290 ft 190 kts 132°
2026-04-20 22:17 53.38070 -3.23822 4033 ft 189 kts 132°
2026-04-20 22:18 53.37190 -3.22235 3817 ft 185 kts 132°
2026-04-20 22:18 53.36324 -3.20674 3549 ft 180 kts 131°
2026-04-20 22:18 53.35485 -3.19157 3283 ft 175 kts 131°
2026-04-20 22:18 53.34666 -3.17673 3022 ft 172 kts 132°
2026-04-20 22:19 53.33857 -3.16210 2764 ft 170 kts 132°
2026-04-20 22:19 53.33070 -3.14789 2550 ft 161 kts 131°
2026-04-20 22:19 53.32449 -3.13341 2503 ft 149 kts 116°
2026-04-20 22:19 53.32194 -3.11684 2503 ft 149 kts 93°
2026-04-20 22:20 53.32234 -3.09976 2504 ft 148 kts 92°
2026-04-20 22:20 53.32287 -3.08259 2508 ft 148 kts 90°
2026-04-20 22:20 53.32357 -3.06535 2438 ft 149 kts 87°
2026-04-20 22:20 53.32434 -3.04813 2281 ft 148 kts 87°
2026-04-20 22:21 53.32513 -3.03104 2104 ft 146 kts 87°
2026-04-20 22:21 53.32590 -3.01483 1917 ft 132 kts 87°
2026-04-20 22:21 53.32660 -3.00000 1746 ft 126 kts 87°
2026-04-20 22:21 53.32728 -2.98563 1559 ft 122 kts 87°
2026-04-20 22:22 53.32794 -2.97149 1400 ft 122 kts 87°
2026-04-20 22:22 53.32861 -2.95723 1222 ft 131 kts 86°
2026-04-20 22:22 53.32930 -2.94256 1057 ft 123 kts 86°
2026-04-20 22:22 53.32997 -2.92832 871 ft 122 kts 87°
2026-04-20 22:23 53.33063 -2.91421 703 ft 122 kts 86°
2026-04-20 22:23 53.33130 -2.90011 532 ft 122 kts 85°
2026-04-20 22:23 53.33195 -2.88620 365 ft 122 kts 85°
2026-04-20 22:23 53.33265 -2.87198 190 ft 120 kts 85°
2026-04-20 22:24 53.33322 -2.85847 82 ft 106 kts 85°
2026-04-20 22:24 53.33365 -2.84949 78 ft 52 kts 85°
2026-04-20 22:24 53.33428 -2.84500 73 ft 31 kts 63°
2026-04-20 22:24 53.33490 -2.84327 79 ft 7 kts 58°
2026-04-20 22:25 53.33529 -2.84261 78 ft 11 kts 11°
2026-04-20 22:25 53.33555 -2.84420 73 ft 22 kts 266°
2026-04-20 22:25 53.33544 -2.84666 80 ft 16 kts 265°
2026-04-20 22:25 53.33536 -2.84823 87 ft 11 kts 265°
2026-04-20 22:26 53.33529 -2.84953 85 ft 12 kts 265°
2026-04-20 22:26 53.33521 -2.85096 84 ft 13 kts 264°
2026-04-20 22:26 53.33515 -2.85254 84 ft 14 kts 268°
2026-04-20 22:27 53.33573 -2.85511 85 ft 14 kts 359°
2026-04-20 22:27 53.33612 -2.85468 89 ft 10 kts 57°
2026-04-20 22:27 53.33663 -2.85439 87 ft 5 kts 354°
2026-04-20 22:27 53.33669 -2.85440 86 ft 0 kts 355°